Regional Weather Roundup
Issued by NWS

Home | Current Version | Previous Version | Graphics & Text | Print | Product List | Glossary Off
Versions: 1 2 3 4 5 6 7 8 9 10 11 12 13 14 15 16 17 18 19 20 21 22 23 24 25 26 27 28 29 30 31 32 33 34 35 36 37 38 39 40 41 42 43 44 45 46 47 48 49 50

000
ASUS43 KDMX 062008
RWRIA

WEATHER ROUNDUP FOR IOWA
NATIONAL WEATHER SERVICE DES MOINES IA
300 PM CDT FRI MAY 06 2016

NOTE: "FAIR" INDICATES FEW OR NO CLOUDS BELOW 12,000 FEET WITH NO
SIGNIFICANT WEATHER AND/OR OBSTRUCTIONS TO VISIBILITY.

* - THESE STATIONS ARE NOT NWS STATIONS...THUS NOT UNDER NWS
QUALITY CONTROL.  THEY ALSO DO NOT REPORT WEATHER SUCH
AS PRECIPITATION OR FOG.

IAZ001>003-012>014-020>022-031>034-043>046-062100-
   NORTHWEST IOWA

CITY           SKY/WX    TMP DP  RH WIND       PRES   REMARKS
CARROLL *      SUNNY     86  36  16 SW26G32   29.90F HX  83
CHEROKEE *     SUNNY     84  48  28 SW17G29   29.87F HX  82
DENISON *      SUNNY     86  45  23 SW17G28   29.89F HX  83
LE MARS *      SUNNY     86  50  28 SW21G30   29.86F HX  84
ORANGE CITY *  SUNNY     86  50  28 SW25G35   29.85F HX  84
SHELDON *      SUNNY     88  45  22 SW23G31   29.83F HX  84
SIOUX CITY     SUNNY     86  52  30 SW22G29   29.87F HX  84
SPENCER        SUNNY     88  45  22 SW23G32   29.85F HX  85
STORM LAKE *   SUNNY     84  45  24 SW24G36   29.89F HX  82
$$

IAZ055>058-069>071-079>083-090>094-062100-
   SOUTHWEST IOWA

CITY           SKY/WX    TMP DP  RH WIND       PRES   REMARKS
ATLANTIC *     SUNNY     84  41  21 SW24G30   29.93F HX  81
AUDUBON *        N/A     86  28  12 SW14G24   29.94F HX  82
CLARINDA *       N/A     84  46  26 MISG      29.97F HX  82
COUNCIL BLFS * SUNNY     84  43  23 SW17G24   29.93F HX  82
CRESTON *      SUNNY     81  48  32 SW18G26   29.98F HX  80
HARLAN  *      SUNNY     86  37  17 SW22      29.96F HX  83
LAMONI         SUNNY     79  51  37 SW17      29.98F
RED OAK *      SUNNY     84  45  24 SW23      29.95F HX  82
SHENANDOAH *   SUNNY     86  39  19 SW20G26   29.95F HX  83
$$

IAZ047>049-059>061-072>074-084-062100-
   CENTRAL IOWA

CITY           SKY/WX    TMP DP  RH WIND       PRES   REMARKS
AMES           SUNNY     88  42  20 W20G36    29.90F HX  84
ANKENY *       SUNNY     84  46  26 W17G24    29.91F HX  82
BOONE *        SUNNY     86  37  17 SW21G29   29.90F HX  83
CHARITON *     SUNNY     82  50  32 SW17G23   29.96F HX  81
DES MOINES     MOSUNNY   86  45  23 W15       29.92F HX  83
GRINNELL*      SUNNY     84  45  24 SW16G25   29.92F HX  82
KNOXVILLE *    SUNNY     82  48  30 SW14G22   29.93F HX  81
MARSHALLTOWN   SUNNY     86  42  21 W22G31    29.89F HX  83
NEWTON *       SUNNY     86  43  22 W18       29.92F HX  83
PELLA *        SUNNY     84  46  26 W7G16     29.94F HX  82
PERRY *          N/A     86  36  16 SW22G33   29.92F HX  83
$$

IAZ004>006-015-016-023>025-035-036-062100-
   NORTH CENTRAL IOWA

CITY           SKY/WX    TMP DP  RH WIND       PRES   REMARKS
ALGONA *       SUNNY     88  45  22 SW28G36   29.86F HX  84
CLARION *      SUNNY     88  37  16 SW25G33   29.87F HX  84
ESTHERVILLE    SUNNY     87  46  24 W28G35    29.84F HX  84
FORT DODGE *   SUNNY     84  45  24 SW15G23   29.90F HX  82
MASON CITY     SUNNY     87  41  19 W16G30    29.86F HX  84
FOREST CITY *  SUNNY     84  37  18 SW15G30   29.85F HX  81
WEBSTER CITY * SUNNY     88  34  14 W18G31    29.87F HX  84
IOWA FALLS *     N/A     88  37  16 W22G32    29.90F HX  84
$$

IAZ007>011-017>019-026>030-037>042-050>054-066-062100-
   NORTHEAST IOWA

CITY           SKY/WX    TMP DP  RH WIND       PRES   REMARKS
CEDAR RAPIDS   SUNNY     84  49  29 W17G28    29.89F HX  82
CHARLES CITY * SUNNY     88  30  12 W21G35    29.86F HX  84
CLINTON *      SUNNY     84  50  30 W16       29.89F HX  82
DECORAH *      SUNNY     86  36  16 W14G21    29.84F HX  83
DUBUQUE        SUNNY     84  47  27 W15       29.88F HX  82
MONTICELLO *   SUNNY     86  46  25 W17       29.87F HX  83
OELWEIN *      SUNNY     88  39  18 W20G28    29.87F HX  84
WATERLOO       SUNNY     87  39  18 W20G28    29.86F HX  84
$$

IAZ064-065-067-068-078-062100-
   EAST CENTRAL IOWA

CITY           SKY/WX    TMP DP  RH WIND       PRES   REMARKS
DAVENPORT      SUNNY     85  43  22 W18G25    29.91F HX  82
IOWA CITY      SUNNY     84  45  25 W15       29.92F HX  82
MT. PLEASANT * SUNNY     86  46  25 SW12G22   29.94F HX  83
MUSCATINE *    SUNNY     86  46  25 W17       29.91F HX  83
QUAD CITIES    SUNNY     85  47  26 W16       29.89F HX  82
$$

IAZ062-063-075>077-085>089-095>099-062100-
   SOUTHEAST IOWA

CITY           SKY/WX    TMP DP  RH WIND       PRES   REMARKS
BURLINGTON     SUNNY     82  49  31 W12G21    29.94F HX  81
FAIRFIELD *    SUNNY     84  45  24 W15G22    29.94F HX  82
FORT MADISON * SUNNY     82  48  30 SW10      29.96F HX  81
KEOKUK *       SUNNY     82  50  32 SW13      29.95F HX  81
OSKALOOSA *      N/A     84  45  24 W18       29.94F HX  82
OTTUMWA        SUNNY     83  51  33 W14       29.94F HX  81
WASHINGTON *   SUNNY     84  45  24 SW17      29.93F HX  82
$$

ABBREVIATIONS USED IN REMARKS
   TC - TEMPERATURES IN CELSIUS
  WCI - WIND CHILL INDEX
   HX - HEAT INDEX
  VSB - VISIBILITY
$$





USA.gov is the U.S. government's official web portal to all federal, state and local government web resources and services.